Location: Iowa City
(41.6610°N, 91.5300°W)
Time: 18:13:36
(UTC-06:00)

ISS - Visible Passes

Search period start: 22 November 2017 00:00
Search period end: 02 December 2017 00:00
Orbit: 402 x 407 km, 51.6° (Epoch: 23 November)

Date Brightness Start Highest point End Pass type
(mag) Time Alt. Az. Time Alt. Az. Time Alt. Az.
25 Nov -1.7 18:24:18 10° S 18:25:41 18° SSE 18:25:41 18° SSE visible
26 Nov -1.5 17:33:34 10° SSE 17:34:48 12° SE 17:35:51 10° ESE visible
26 Nov -1.1 19:07:34 10° WSW 19:08:32 18° WSW 19:08:32 18° WSW visible
27 Nov -3.6 18:15:21 10° SW 18:18:33 53° SE 18:18:36 53° SE visible
28 Nov -2.5 17:23:29 10° SSW 17:26:19 27° SE 17:28:36 13° E visible
28 Nov -1.5 18:59:36 10° W 19:01:16 24° W 19:01:16 24° W visible
29 Nov -3.6 18:07:01 10° WSW 18:10:16 65° NNW 18:11:10 42° NNE visible
30 Nov -3.7 17:14:39 10° SW 17:17:55 67° SE 17:21:00 11° ENE visible
30 Nov -1.5 18:51:55 10° WNW 18:53:39 20° NW 18:53:39 20° NW visible
01 Dec -2.5 17:59:05 10° W 18:02:05 33° NNW 18:03:25 23° NNE visible
